User: anonymous   Login
Location: Unspecified
(0.0000°N, 0.0000°E)
Time: 19:04:47
(UTC+00:00)
Language:

USA 270 - Orbit

View from above orbital plane
View from above orbital plane
View from above satellite
View from above satellite

Ground track
Ground track

The orbit data is extracted from the following two-line orbital elements,

1 41744U 16052A   19025.37598279 0.00000000  00000-0  00000-0 0    04
2 41744   0.0660  81.4477 0010036 341.5756  18.3895  1.00429136    06
Epoch (UTC): 25 January 2019 09:01:24
Eccentricity: 0.0010036
inclination: 0.0660°
perigee height: 35700 km
apogee height: 35784 km
right ascension of ascending node: 81.4477°
argument of perigee: 341.5756°
revolutions per day: 1.00429136
mean anomaly at epoch: 18.3895°
orbit number at epoch: 0

The dashed part of the orbit path shows where the satellite is in the earth's shadow,  

DLR